Regional Weather Roundup
Issued by NWS

Home | Current Version | Previous Version | Graphics & Text | Print | Product List | Glossary On
Versions: 1 2 3 4 5 6 7 8 9 10 11 12 13 14 15 16 17 18 19 20 21 22 23 24 25 26 27 28 29 30 31 32 33 34 35 36 37 38 39 40 41 42 43 44 45 46 47 48 49 50
654
ASUS45 KBOI 231410
RWRID

IDAHO REGIONAL WEATHER ROUNDUP
NATIONAL WEATHER SERVICE BOISE ID
800 AM MDT SAT JUL 23 2016

NOTE: "FAIR" INDICATES FEW OR NO CLOUDS BELOW 12000 FEET
WITH NO SIGNIFICANT WEATHER AND/OR OBSTRUCTIONS TO VISIBILITY

IDZ012-014-231500-
SOUTHWEST IDAHO


CITY           SKY/WX    TMP DP  RH WIND       PRES   REMARKS
BOISE          SUNNY     60  42  51 W5        30.17R
CALDWELL       NOT AVBL
MOUNTAIN HOME  SUNNY     64  40  41 NW13      30.17R
$$

IDZ016-017-231500-
SOUTHCENTRAL IDAHO


CITY           SKY/WX    TMP DP  RH WIND       PRES   REMARKS
BURLEY         SUNNY     61  43  51 W14G22    30.18R
JEROME         SUNNY     59  44  57 S7        30.20R
TWIN FALLS     SUNNY     63  36  36 S14       30.22R
$$

IDZ019>023-231500-
SOUTHEAST IDAHO


CITY           SKY/WX    TMP DP  RH WIND       PRES   REMARKS
IDAHO FALLS    SUNNY     58  39  49 SW12      30.20R
POCATELLO      SUNNY     64  41  42 SW20G26   30.20S
REXBURG        SUNNY     53  42  66 CALM      30.20R
$$

IDZ006-010-011-018-031-032-231500-
CENTRAL IDAHO MOUNTAINS


CITY           SKY/WX    TMP DP  RH WIND       PRES   REMARKS
MCCALL         SUNNY     56  39  53 N8        30.23R
HAILEY         MOSUNNY   52  34  50 NW10      30.23S
STANLEY          N/A     42  32  67 CALM      30.30R
SALMON         SUNNY     61  39  44 N3        30.21R
CHALLIS        SUNNY     58  39  49 CALM      30.22R
$$

IDZ002-004-006-007-026-231500-
NORTHERN IDAHO


CITY           SKY/WX    TMP DP  RH WIND       PRES   REMARKS
LEWISTON       MOSUNNY   61  47  59 CALM      30.18R
LOWELL           N/A     55  51  86 CALM      30.21R
COEUR D`ALENE  CLOUDY    57  52  82 S3        30.16R
MULLAN PASS    SUNNY     48  43  82 CALM      30.24S
$$




USA.gov is the U.S. government's official web portal to all federal, state and local government web resources and services.